Regional Weather Roundup
Issued by NWS Sioux Falls, SD

Home | Current Version | Previous Version | Text Only | Print | Product List | Glossary On
Versions: 1 2 3 4 5 6 7 8 9 10 11 12 13 14 15 16 17 18 19 20 21 22 23 24 25 26 27 28 29 30 31 32 33 34 35 36 37 38 39 40 41 42 43 44 45 46 47 48 49 50
000
ASUS43 KFSD 210102
RWRFSD

WEATHER ROUNDUP FOR SE SOUTH DAKOTA/SW MINNESOTA/NW IOWA
NATIONAL WEATHER SERVICE SIOUX FALLS SD
800 PM CDT MON OCT 20 2014

NOTE: "FAIR" INDICATES FEW OR NO CLOUDS BELOW 12,000 FEET WITH NO
SIGNIFICANT WEATHER AND OR OBSTRUCTIONS TO VISIBILITY.


SDZ038>040-050-052>070-210200-
SOUTHEAST SOUTH DAKOTA

CITY           SKY/WX    TMP DP  RH WIND       PRES   REMARKS
CHAMBERLAIN    CLEAR     56  37  48 SE9       29.99S
HURON          CLEAR     57  34  41 SE6       30.02R
MADISON        FAIR      54  36  50 NE3       30.04S
MITCHELL       CLEAR     60  36  40 SE5       30.03S
SIOUX FALLS    CLEAR     53  37  54 CALM      30.03S
WINNER         FAIR      61  40  45 SE8       29.98S
YANKTON        CLEAR     55  37  50 CALM      30.04R
$$

MNZ071-072-080-081-089-090-097-098-210200-
SOUTHWEST MINNESOTA

CITY           SKY/WX    TMP DP  RH WIND       PRES   REMARKS
FAIRMONT       CLEAR     52  36  54 NW3       30.03S
JACKSON        CLEAR     50  36  57 CALM      30.05R
LUVERNE        CLEAR     52  36  54 CALM      30.04S
MARSHALL       CLEAR     55  36  47 NE3       30.03S
MONTEVIDEO     CLEAR     52  37  58 NE3       30.04F
PIPESTONE      CLEAR     55  36  47 CALM      30.04S
REDWOOD FALLS  CLEAR     58  39  49 NW5       30.03S
TRACY          CLEAR     51  38  60 CALM      30.04S
WINDOM         CLEAR     48  37  66 N3        30.04S
WORTHINGTON    CLEAR     48  34  57 N3        30.06R
$$

IAZ001>003-012>014-020>022-031-032-NEZ013-014-SDZ071-210200-
NORTHWEST IOWA

CITY           SKY/WX    TMP DP  RH WIND       PRES   REMARKS
CHEROKEE       CLEAR     50  40  69 CALM      30.04S
DENISON        CLEAR     50  41  71 SE3       30.03S
ESTHERVILLE    CLEAR     48  36  63 NW5       30.03S
LE MARS        CLEAR     48  41  76 CALM      30.04S
ORANGE CITY    CLEAR     61  37  41 CALM      30.04S
SHELDON        CLEAR     50  37  62 CALM      30.03S
SIOUX CITY     CLEAR     50  40  68 CALM      30.04S
SPENCER        CLEAR     48  37  65 CALM      30.04R
STORM LAKE     CLEAR     57  37  47 NW6       30.05S
$$

ABBREVIATIONS USED IN REMARKS
   TC - TEMPERATURE IN CELSIUS
  WCI - WIND CHILL INDEX
   HX - HEAT INDEX
  VSB - VISIBILITY



USA.gov is the U.S. government's official web portal to all federal, state and local government web resources and services.